TimeMST,TemperatureF,Dew PointF,Humidity,Sea Level PressureIn,VisibilityMPH,Wind Direction,Wind SpeedMPH,Gust SpeedMPH,PrecipitationIn,Events,Conditions,WindDirDegrees,DateUTC
12:53 AM,16.0,7.0,68,30.38,10.0,West,10.4,-,N/A,,Clear,270,2012-01-28 07:53:00
1:53 AM,12.9,7.0,77,30.39,10.0,WSW,10.4,-,N/A,,Clear,250,2012-01-28 08:53:00
2:53 AM,14.0,7.0,74,30.36,10.0,WSW,10.4,-,N/A,,Clear,250,2012-01-28 09:53:00
3:53 AM,16.0,8.1,71,30.35,10.0,West,11.5,-,N/A,,Clear,260,2012-01-28 10:53:00
4:53 AM,15.1,8.1,74,30.35,10.0,West,10.4,-,N/A,,Clear,260,2012-01-28 11:53:00
5:53 AM,15.1,8.1,74,30.38,10.0,West,10.4,-,N/A,,Clear,270,2012-01-28 12:53:00
6:53 AM,17.1,9.0,71,30.40,10.0,West,11.5,-,N/A,,Clear,270,2012-01-28 13:53:00
7:53 AM,21.0,10.0,63,30.42,10.0,West,12.7,-,N/A,,Clear,280,2012-01-28 14:53:00
8:53 AM,28.4,10.4,47,30.30,10.0,WNW,12.7,21.9,N/A,,Clear,290,2012-01-28 15:53:00
9:53 AM,35.1,7.0,31,30.40,10.0,WNW,15.0,24.2,N/A,,Clear,300,2012-01-28 16:53:00
10:53 AM,39.0,3.0,22,30.40,10.0,NW,16.1,-,N/A,,Clear,310,2012-01-28 17:53:00
11:53 AM,41.0,1.0,19,30.38,10.0,WNW,18.4,24.2,N/A,,Clear,300,2012-01-28 18:53:00
12:53 PM,43.0,-0.0,17,30.33,10.0,NW,15.0,25.3,N/A,,Clear,310,2012-01-28 19:53:00
1:53 PM,43.0,-0.9,16,30.32,10.0,NW,17.3,25.3,N/A,,Clear,320,2012-01-28 20:53:00
2:53 PM,44.6,-0.4,15,30.21,10.0,NW,16.1,25.3,N/A,,Clear,310,2012-01-28 21:53:00
3:53 PM,43.0,-0.9,16,30.29,10.0,NW,12.7,20.7,N/A,,Clear,320,2012-01-28 22:53:00
4:53 PM,39.0,1.0,20,30.30,10.0,NW,8.1,-,N/A,,Partly Cloudy,320,2012-01-28 23:53:00
5:53 PM,36.0,1.0,23,30.32,10.0,WNW,6.9,-,N/A,,Overcast,290,2012-01-29 00:53:00
6:53 PM,30.9,1.9,29,30.32,10.0,West,6.9,-,N/A,,Partly Cloudy,260,2012-01-29 01:53:00
7:53 PM,26.1,3.0,37,30.32,10.0,WSW,8.1,-,N/A,,Scattered Clouds,240,2012-01-29 02:53:00
8:53 PM,30.0,5.0,35,30.29,10.0,WSW,9.2,-,N/A,,Overcast,250,2012-01-29 03:53:00
9:53 PM,28.0,5.0,38,30.27,10.0,West,9.2,-,N/A,,Mostly Cloudy,270,2012-01-29 04:53:00
10:53 PM,25.0,3.9,41,30.27,10.0,West,10.4,-,N/A,,Clear,260,2012-01-29 05:53:00
11:53 PM,25.0,5.0,43,30.26,10.0,West,11.5,-,N/A,,Clear,270,2012-01-29 06:53:00